Current weather by "City, St" or "zip code"  
 

Current Conditions: Ft. Polk - Fullerton Landing Strip, LA

Fair


74.0 F

Last Updated on Sep 18 2020, 12:54 am CDT
Humidity: 91%
Wind Speed: 3.5 mph
Barometer 29.94 in
Dewpoint: 71.1 F
Visibility: 10.00 mi
Precip: --
Heat Index: NA
Wind Chill: NA
Current conditions at:

Ft. Polk - Fullerton Landing Strip, LA (KBKB)

Lat: 31.0217 Lon: 92.9107

Local Radar Image active severe weather and emergency alerts image image weather storm and storm spotter reports image weather observation monitoring service image
Local
Radar
Active
Alerts
Storm Reports Obs
Monitoring

Sign-up For Email & Text Message Weather Alert Notification Services



Advertise Here

Observation History for Ft. Polk - Fullerton Landing Strip, LA


Time Wind
(mph)
Vis
(mi)
Weather Precip (in) Temperature (F) Relative
Humidity
Wind
Chill
(F)
Heat
Index
(F)
Pressure
Air Dwpt altimeter
(in)
sea level
(mb)
Rmks
12:54 am CDT 3.5 10.00 Fair -- 74.0 71.1 91% NA NA 29.94 1016.3
11:54 pm CDT N 0.0 10.00 Fair -- 75.0 70.0 84% NA NA 29.94 1016.5
10:54 pm CDT N 0.0 10.00 Fair -- 75.0 71.1 88% NA NA 29.93 1016.2
9:54 pm CDT N 0.0 10.00 Fair -- 76.0 71.1 85% NA NA 29.92 1015.7
8:54 pm CDT N 0.0 10.00 Fair -- 78.0 71.1 79% NA NA 29.91 1015.3
7:54 pm CDT N 0.0 10.00 Fair -- 79.0 71.1 77% NA NA 29.88 1014.3
6:54 pm CDT N 0.0 10.00 Fair -- 80.0 72.0 76% NA 84 29.88 1014.2
5:54 pm CDT N 0.0 10.00 Fair -- 83.0 71.1 67% NA 88 29.87 1014.0
4:54 pm CDT 3.5 10.00 A Few Clouds -- 84.0 71.1 65% NA 89 29.88 1014.1
3:54 pm CDT 3.5 10.00 A Few Clouds -- 85.0 71.1 63% NA 90 29.88 1014.3
2:54 pm CDT 6.9 10.00 Mostly Cloudy -- 86.0 70.0 59% NA 91 29.89 1014.7
1:54 pm CDT 3.5 10.00 Partly Cloudy -- 85.0 71.1 63% NA 90 29.91 1015.2
12:54 pm CDT 4.6 10.00 Overcast -- 82.0 70.0 67% NA 86 29.92 1015.8
11:54 am CDT 4.6 10.00 Mostly Cloudy -- 80.0 70.0 71% NA 83 29.94 1016.3
10:54 am CDT 5.8 10.00 Mostly Cloudy -- 78.0 70.0 76% NA NA 29.95 1016.5
9:54 am CDT N 0.0 10.00 Mostly Cloudy -- 77.0 70.0 79% NA NA 29.94 1016.5
8:54 am CDT N 0.0 10.00 Overcast -- 74.0 70.0 88% NA NA 29.92 1015.8
7:54 am CDT N 0.0 10.00 Mostly Cloudy -- 73.0 71.1 94% NA NA 29.90 1015.0
6:54 am CDT 3.5 10.00 A Few Clouds -- 73.0 71.1 94% NA NA 29.88 1014.4
5:54 am CDT N 0.0 10.00 A Few Clouds -- 73.0 71.1 94% NA NA 29.88 1014.3
4:54 am CDT N 0.0 10.00 Fair -- 73.0 71.1 94% NA NA 29.88 1014.2
3:54 am CDT N 0.0 10.00 Fair -- 74.0 71.1 91% NA NA 29.86 1013.6
2:54 am CDT N 0.0 10.00 Fair -- 75.0 72.0 90% NA NA 29.87 1013.9
1:54 am CDT N 0.0 10.00 Fair -- 76.0 72.0 88% NA NA 29.88 1014.2

Regional Weather Observation


Fort Polk, Polk AAF Ft Polk, LA (KPOE)

Fair
75.0 F

Ft. Polk - Fullerton Landing Strip, LA (KBKB)

Fair
74.0 F

Ft. Polk - Peason Ridge, LA (KAQV)

A Few Clouds
82.0 F

Natchitoches, Natchitoches Regional Airport, LA (KIER)

Fair
74.0 F

Alexandria, Alexandria International Airport, LA (KAEX)

Fair
75.0 F

De Ridder, Beauregard Parish Airport, LA (KDRI)

Fair
76.0 F